DW3433 Weather Reports


Display with metric or nautical units.
time (UTC)temp
F
wind
direction
speed
MPH
gust
MPH
rain 1hr
in
rain 24hr
in
rain mn
in
humidity
%
barometer
mb
20260503223516 63 315 7.0 11.0 0.00 0.00 0.00 38 1015.4
20260503223016 63 348 2.0 11.0 0.00 0.00 0.00 37 1015.4
20260503222515 63 319 3.0 8.0 0.00 0.00 0.00 37 1015.4
20260503221515 63 238 3.0 11.0 0.00 0.00 0.00 38 1015.4
20260503221015 62 259 3.0 13.0 0.00 0.00 0.00 37 1015.3
20260503220046 62 224 6.0 13.0 0.00 0.00 0.00 38 1015.3
20260503215515 62 208 5.0 10.0 0.00 0.00 0.00 38 1015.3
20260503215015 62 286 7.0 13.0 0.00 0.00 0.00 38 1015.3
20260503214515 63 265 10.0 13.0 0.00 0.00 0.00 37 1015.3
20260503214015 63 274 2.0 12.0 0.00 0.00 0.00 38 1015.3
20260503213515 62 259 4.0 15.0 0.00 0.00 0.00 39 1015.3
20260503213015 62 238 10.0 15.0 0.00 0.00 0.00 39 1015.3
20260503212515 62 239 3.0 14.0 0.00 0.00 0.00 38 1015.3
20260503212015 63 193 6.0 14.0 0.00 0.00 0.00 37 1015.3
20260503211515 63 241 3.0 10.0 0.00 0.00 0.00 38 1015.3
20260503211016 63 348 1.0 12.0 0.00 0.00 0.00 38 1015.2
20260503210515 62 268 5.0 12.0 0.00 0.00 0.00 39 1015.2
20260503210015 62 300 6.0 10.0 0.00 0.00 0.00 37 1015.2
20260503205515 62 205 0.0 10.0 0.00 0.00 0.00 38 1015.2
20260503204045 62 271 4.0 11.0 0.00 0.00 0.00 38 1015.1
20260503203545 62 345 4.0 11.0 0.00 0.00 0.00 38 1015.1
20260503203045 62 283 1.0 7.0 0.00 0.00 0.00 40 1015.1
20260503202515 61 305 6.0 14.0 0.00 0.00 0.00 39 1015.3
20260503202044 62 238 0.0 14.0 0.00 0.00 0.00 37 1015.3
20260503201515 62 268 5.0 11.0 0.00 0.00 0.00 38 1015.3
20260503201015 62 297 4.0 10.0 0.00 0.00 0.00 39 1015.4
20260503200515 62 274 1.0 8.0 0.00 0.00 0.00 39 1015.4
20260503200014 61 345 2.0 13.0 0.00 0.00 0.00 41 1015.4
20260503195015 61 323 3.0 10.0 0.00 0.00 0.00 39 1015.7
20260503194514 61 23 0.0 10.0 0.00 0.00 0.00 43 1015.7
20260503194015 61 258 7.0 10.0 0.00 0.00 0.00 41 1015.9
20260503193014 60 307 0.0 10.0 0.00 0.00 0.00 41 1015.9
20260503192515 60 0 6.0 13.0 0.00 0.00 0.00 42 1015.9
20260503192014 60 298 4.0 13.0 0.00 0.00 0.00 41 1015.9
20260503191514 60 271 5.0 15.0 0.00 0.00 0.00 41 1015.9
20260503190514 60 341 10.0 16.0 0.00 0.00 0.00 41 1016.0
20260503190044 60 16 4.0 11.0 0.00 0.00 0.00 43 1016.0
20260503185514 60 14 0.0 9.0 0.00 0.00 0.00 43 1016.3
20260503184514 60 302 5.0 13.0 0.00 0.00 0.00 44 1016.3
20260503184044 59 341 4.0 13.0 0.00 0.00 0.00 44 1016.4
20260503183014 59 354 9.0 16.0 0.00 0.00 0.00 41 1016.4
20260503182514 59 356 10.0 13.0 0.00 0.00 0.00 43 1016.4
20260503182044 59 342 6.0 15.0 0.00 0.00 0.00 44 1016.4
20260503181514 58 358 10.0 17.0 0.00 0.00 0.00 42 1016.4
20260503181014 59 352 4.0 17.0 0.00 0.00 0.00 41 1016.4
20260503180514 58 291 12.0 13.0 0.00 0.00 0.00 44 1016.4
20260503180014 59 271 8.0 12.0 0.00 0.00 0.00 43 1016.4
20260503175514 58 338 3.0 12.0 0.00 0.00 0.00 44 1016.4
20260503175044 58 356 10.0 12.0 0.00 0.00 0.00 45 1016.4
20260503174544 58 340 1.0 13.0 0.00 0.00 0.00 44 1016.4
20260503174014 57 284 5.0 18.0 0.00 0.00 0.00 46 1016.7
20260503173514 57 288 5.0 18.0 0.00 0.00 0.00 45 1016.7
20260503173014 57 5 6.0 15.0 0.00 0.00 0.00 46 1016.7
20260503172514 57 0 9.0 15.0 0.00 0.00 0.00 44 1016.9
20260503172014 57 25 8.0 16.0 0.00 0.00 0.00 43 1016.9
20260503171514 57 347 13.0 16.0 0.00 0.00 0.00 43 1016.9
20260503171013 57 1 6.0 15.0 0.00 0.00 0.00 46 1016.9
20260503170513 56 331 6.0 15.0 0.00 0.00 0.00 45 1016.9
20260503150513 54 285 5.0 19.0 0.00 0.01 0.00 46 1017.4
20260503131012 52 1 5.0 17.0 0.00 0.01 0.00 56 1016.9
20260503130512 52 337 6.0 17.0 0.00 0.01 0.00 54 1016.9
20260503110541 50 261 4.0 15.0 0.00 0.01 0.00 62 1015.7
20260503081040 52 328 3.0 7.0 0.00 0.01 0.00 68 1012.9
20260503080540 53 326 3.0 9.0 0.00 0.01 0.00 68 1012.9
20260503072540 53 313 4.0 10.0 0.00 0.01 0.00 68 1012.6
20260503072039 53 340 3.0 9.0 0.00 0.01 0.00 68 1012.6
20260503071539 53 338 4.0 7.0 0.00 0.01 0.00 69 1012.6
20260503071040 53 331 3.0 11.0 0.00 0.01 0.00 69 1012.4
20260503070539 53 330 3.0 11.0 0.00 0.01 0.00 68 1012.4
20260503055038 49 23 0.0 0.0 0.00 0.01 0.00 79 1012.1
20260503054539 49 23 0.0 0.0 0.00 0.01 0.00 80 1012.1
20260503054039 50 23 0.0 0.0 0.00 0.01 0.00 80 1011.9
20260503053539 50 23 0.0 0.0 0.00 0.01 0.00 80 1011.9
20260503053039 50 23 0.0 0.0 0.00 0.01 0.00 81 1011.9
20260503052538 49 23 0.0 0.0 0.00 0.01 0.00 80 1012.2
20260503052038 49 23 0.0 0.0 0.00 0.01 0.00 80 1012.2
20260503051539 49 23 0.0 0.0 0.00 0.01 0.00 81 1012.2
20260503051038 49 23 0.0 0.0 0.00 0.01 0.00 80 1012.2
20260503050538 50 23 0.0 0.0 0.00 0.01 0.00 80 1012.2
20260503050039 50 23 0.0 0.0 0.00 0.01 0.00 79 1012.2
20260503045538 50 23 0.0 0.0 0.00 0.01 0.00 78 1012.2
20260503045038 50 23 0.0 0.0 0.00 0.01 0.00 79 1012.2
20260503044538 50 23 0.0 0.0 0.00 0.01 0.00 78 1012.2
20260503043039 51 23 0.0 0.0 0.00 0.01 0.00 77 1012.2
20260503042538 51 23 0.0 0.0 0.00 0.01 0.00 76 1012.2
20260503042038 51 23 0.0 0.0 0.00 0.01 0.00 76 1012.2
20260503041538 51 23 0.0 0.0 0.00 0.01 0.00 75 1012.2
20260503041038 52 23 0.0 0.0 0.00 0.01 0.00 75 1012.3
20260503040538 52 23 0.0 0.0 0.00 0.01 0.00 74 1012.3
20260503040038 52 23 0.0 0.0 0.00 0.01 0.00 74 1012.3
20260503035538 52 23 0.0 0.0 0.00 0.01 0.01 74 1012.2
20260503034038 52 23 0.0 0.0 0.00 0.01 0.01 74 1012.2
20260503033538 52 23 0.0 0.0 0.00 0.01 0.01 73 1012.2
20260503033038 52 23 0.0 0.0 0.00 0.01 0.01 73 1012.2
20260503032038 52 23 0.0 0.0 0.00 0.01 0.01 73 1012.0
20260503031538 53 23 0.0 0.0 0.00 0.01 0.01 73 1012.0
20260503030538 53 23 0.0 0.0 0.00 0.01 0.01 72 1012.2
20260503030037 53 23 0.0 0.0 0.00 0.01 0.01 71 1012.2
20260503025538 53 23 0.0 0.0 0.00 0.01 0.01 71 1012.2
20260503025038 53 23 0.0 0.0 0.00 0.01 0.01 71 1012.2
20260503024538 53 25 0.0 0.0 0.00 0.01 0.01 72 1012.2
20260503024038 53 25 0.0 0.0 0.00 0.01 0.01 72 1012.2
20260503023538 53 25 0.0 0.0 0.00 0.01 0.01 73 1012.2
20260503023037 53 25 0.0 0.0 0.00 0.01 0.01 72 1012.2
20260503022538 53 25 0.0 0.0 0.00 0.01 0.01 70 1012.1
20260503022037 54 25 0.0 0.0 0.00 0.01 0.01 70 1012.1
20260503021538 54 25 0.0 0.0 0.00 0.01 0.01 69 1012.1
20260503021037 54 25 0.0 0.0 0.00 0.01 0.01 70 1011.9
20260503020537 54 25 0.0 0.0 0.00 0.01 0.01 70 1011.9
20260503020037 54 25 0.0 0.0 0.00 0.01 0.01 69 1011.9
20260503015537 54 25 0.0 0.0 0.00 0.01 0.01 68 1012.0
20260503015037 54 25 0.0 0.0 0.00 0.01 0.01 69 1012.0
20260503014537 55 25 0.0 0.0 0.00 0.01 0.01 69 1012.0
20260503014037 55 25 0.0 0.0 0.00 0.01 0.01 68 1012.2
20260503013537 55 25 0.0 0.0 0.00 0.01 0.01 67 1012.2
20260503013038 55 25 0.0 0.0 0.00 0.01 0.01 66 1012.2
20260503012537 55 25 0.0 0.0 0.00 0.01 0.01 66 1011.7
20260503012037 55 25 0.0 0.0 0.00 0.01 0.01 66 1011.7
20260503011537 55 25 0.0 0.0 0.00 0.01 0.01 66 1011.7
20260503011037 55 25 0.0 0.0 0.00 0.01 0.01 66 1011.7
20260503010537 55 25 0.0 0.0 0.00 0.01 0.01 65 1011.7
20260503010037 55 25 0.0 0.0 0.00 0.01 0.01 65 1011.7
20260503005537 55 25 0.0 0.0 0.00 0.01 0.01 65 1011.7
20260503005037 56 25 0.0 0.0 0.00 0.01 0.01 64 1011.7
20260503004037 56 25 0.0 0.0 0.00 0.01 0.01 62 1011.4
20260503003037 56 25 0.0 0.0 0.00 0.01 0.01 61 1011.4
20260503002537 57 25 0.0 0.0 0.00 0.01 0.01 60 1011.2
20260503002037 57 25 0.0 0.0 0.00 0.01 0.01 60 1011.2
20260503001537 57 25 0.0 0.0 0.00 0.01 0.01 59 1011.2
20260503000536 57 25 0.0 6.0 0.00 0.01 0.01 58 1011.2
20260503000037 57 25 3.0 6.0 0.00 0.01 0.01 57 1011.2
20260502235536 57 23 0.0 4.0 0.00 0.01 0.01 58 1011.2
20260502235036 57 23 0.0 6.0 0.00 0.01 0.01 56 1011.2
20260502234538 57 23 0.0 6.0 0.00 0.01 0.01 56 1011.2
20260502234036 57 23 2.0 6.0 0.00 0.01 0.01 54 1011.1
20260502233536 57 21 2.0 6.0 0.00 0.01 0.01 54 1011.1
20260502233036 57 21 3.0 6.0 0.00 0.01 0.01 53 1011.1
20260502232536 57 20 4.0 6.0 0.00 0.01 0.01 51 1011.1
20260502232036 57 17 1.0 6.0 0.00 0.01 0.01 52 1011.1
20260502231536 57 27 3.0 6.0 0.00 0.01 0.01 51 1011.1
20260502231036 57 28 5.0 8.0 0.00 0.01 0.01 50 1011.1
20260502230036 57 27 3.0 9.0 0.00 0.01 0.01 49 1011.1
20260502225537 57 18 5.0 11.0 0.00 0.01 0.01 49 1011.0
20260502225037 57 28 5.0 11.0 0.00 0.01 0.01 49 1011.0
20260502224536 58 20 5.0 11.0 0.00 0.01 0.01 50 1011.0
20260502224036 58 36 4.0 9.0 0.00 0.01 0.01 50 1011.0